sat.trackr.live / text

‹ back to catalog

STARLINK-31353

NORAD 58980 · 2024-031R

PAYLOAD ACTIVE UNKNOWN

§ Identity

Operator
Country
US
Launch date
2024-02-15
Launch site
AFWTR
Launch vehicle
Mass (kg)
RCS (m²)

Purposes: comms

External: N2YO · Heavens-Above · Gunter

§ Orbital elements

Epoch: 2026-05-24T20:38:27.481920Z

Period
94.10 min
Inclination
53.1623°
Eccentricity
0.0001326
Mean motion
15.30212324 rev/d
Perigee alt
474.3 km
Apogee alt
476.1 km
Semi-major
6,853.3 km
B*
1.2455e-4
RAAN
302.9990°
Arg perigee
90.8410°
Mean anomaly
269.2743°
Rev number
12,817

§ Raw data

STARLINK-313531 58980U 24031R   26144.86004030  .00003333  00000+0  12455-3 0  99992 58980  53.1623 302.9990 0001326  90.8410 269.2743 15.30212324128173

JSON: /api/v1/satellites/58980 · /tle

For live sub-satellite position, see the globe view (requires WebGL).

§ Visibility from observer

Set your observer location to see the next 7 days of passes ≥ 10°. The values pass through the URL so the page stays shareable.

No JS? Fill the form by hand. The geolocation button needs JavaScript.